DW3649 Weather Reports


Display with metric or nautical units.
time (UTC)temp
F
wind
direction
speed
MPH
gust
MPH
rain 1hr
in
rain 24hr
in
rain mn
in
humidity
%
barometer
mb
20260508051525 66 88 0.0 0.0 0.00 0.00 0.00 40 1015.7
20260508050031 66 88 0.0 0.0 0.00 0.00 0.00 42 1015.5
20260508044520 66 88 1.0 0.0 0.00 0.00 0.00 45 1015.6
20260508043020 65 24 0.0 0.0 0.00 0.00 0.00 49 1015.5
20260508041517 65 24 0.0 0.0 0.00 0.00 0.00 52 1015.0
20260508040017 65 26 0.0 0.0 0.00 0.00 0.00 50 1014.7
20260508034524 65 26 0.0 0.0 0.00 0.00 0.00 47 1014.5
20260508033016 64 26 0.0 0.0 0.00 0.00 0.00 51 1014.4
20260508031516 65 26 0.0 0.0 0.00 0.00 0.00 52 1014.6
20260508030016 65 26 0.0 0.0 0.00 0.00 0.00 55 1014.5
20260508024519 65 142 0.0 0.0 0.00 0.00 0.00 53 1014.5
20260508023014 66 147 0.0 0.0 0.00 0.00 0.00 51 1014.6
20260508021513 67 147 0.0 0.0 0.00 0.00 0.00 45 1014.7
20260508020013 67 147 0.0 0.0 0.00 0.00 0.00 38 1014.7
20260508014511 67 146 3.0 0.0 0.00 0.00 0.00 39 1014.6
20260508013008 66 132 2.0 0.0 0.00 0.00 0.00 40 1014.8
20260508011506 65 87 0.0 0.0 0.00 0.00 0.00 49 1015.1
20260508010009 65 87 0.0 0.0 0.00 0.00 0.00 52 1015.3
20260508004502 65 87 0.0 0.0 0.00 0.00 0.00 51 1015.4
20260508003002 65 90 0.0 0.0 0.00 0.00 0.00 51 1015.3
20260508001501 65 90 0.0 0.0 0.00 0.00 0.00 53 1015.4
20260508000121 65 90 0.0 0.0 0.00 0.00 0.00 51 1015.4
20260507234558 65 90 0.0 0.0 0.00 0.00 0.00 49 1015.6
20260507233057 65 90 0.0 0.0 0.00 0.00 0.00 49 1016.0
20260507231609 65 138 0.0 0.0 0.00 0.00 0.00 50 1016.1
20260507230056 65 138 0.0 0.0 0.00 0.00 0.00 56 1016.0
20260507224553 65 138 0.0 0.0 0.00 0.00 0.00 55 1016.3
20260507223052 65 138 0.0 0.0 0.00 0.00 0.00 52 1016.3
20260507221558 65 138 0.0 0.0 0.00 0.00 0.00 53 1016.3
20260507220052 65 145 2.0 0.0 0.00 0.00 0.00 53 1016.4
20260507214549 66 141 3.0 0.0 0.00 0.00 0.00 50 1016.7
20260507213047 66 128 1.0 0.0 0.00 0.00 0.00 49 1016.7
20260507211555 66 130 3.0 0.0 0.00 0.00 0.00 48 1016.8
20260507210047 66 229 4.0 0.0 0.00 0.00 0.00 45 1016.8
20260507204542 67 224 4.0 0.0 0.00 0.00 0.00 39 1016.7
20260507203041 68 135 2.0 0.0 0.00 0.00 0.00 34 1016.9
20260507201539 68 75 0.0 0.0 0.00 0.00 0.00 33 1016.7
20260507200041 68 75 2.0 0.0 0.00 0.00 0.00 34 1016.7
20260507194539 68 74 0.0 0.0 0.00 0.00 0.00 42 1016.7
20260507193037 68 80 0.0 0.0 0.00 0.00 0.00 43 1016.6
20260507191537 69 117 0.0 0.0 0.00 0.00 0.00 37 1016.5
20260507190039 69 101 1.0 0.0 0.00 0.00 0.00 33 1016.4
20260507184535 68 121 1.0 0.0 0.00 0.00 0.00 34 1016.5
20260507183036 68 136 3.0 0.0 0.00 0.00 0.00 35 1016.3
20260507181534 68 148 2.0 0.0 0.00 0.00 0.00 39 1016.3
20260507180034 68 190 3.0 0.0 0.00 0.00 0.00 40 1016.3
20260507174546 68 121 3.0 0.0 0.00 0.00 0.00 41 1016.2
20260507173033 68 165 5.0 0.0 0.00 0.00 0.00 42 1016.2
20260507171542 70 148 5.0 0.0 0.00 0.00 0.00 38 1016.3
20260507170032 70 140 3.0 0.0 0.00 0.00 0.00 32 1015.7
20260507164531 70 175 5.0 0.0 0.00 0.00 0.00 33 1015.6
20260507163031 70 117 3.0 0.0 0.00 0.00 0.00 34 1015.7
20260507161533 70 148 4.0 0.0 0.00 0.00 0.00 36 1015.8
20260507160038 71 156 6.0 0.0 0.00 0.00 0.00 34 1015.6
20260507154529 71 141 6.0 0.0 0.00 0.00 0.00 34 1015.8
20260507153029 71 157 6.0 0.0 0.00 0.00 0.00 34 1016.0
20260507151529 71 168 5.0 0.0 0.00 0.00 0.00 35 1016.3
20260507150036 71 165 5.0 0.0 0.00 0.00 0.00 35 1016.2
20260507144528 71 136 7.0 0.0 0.00 0.00 0.00 35 1016.1
20260507143027 71 235 6.0 0.0 0.00 0.00 0.00 37 1016.2
20260507141526 71 171 7.0 0.0 0.00 0.00 0.00 34 1016.1
20260507140036 72 213 7.0 0.0 0.00 0.00 0.00 36 1015.8
20260507134525 73 142 8.0 0.0 0.00 0.00 0.00 31 1015.7
20260507133024 73 150 7.0 0.0 0.00 0.00 0.00 29 1015.6
20260507131540 73 172 8.0 0.0 0.00 0.00 0.00 32 1015.5
20260507130022 73 140 7.0 0.0 0.00 0.00 0.00 32 1015.7
20260507124522 73 158 5.0 0.0 0.00 0.00 0.00 34 1016.1
20260507123026 72 156 5.0 0.0 0.00 0.00 0.00 39 1016.2
20260507121519 73 190 7.0 0.0 0.00 0.00 0.00 38 1016.3
20260507120028 73 155 6.0 0.0 0.00 0.00 0.00 39 1016.3
20260507114551 73 209 7.0 0.0 0.00 0.00 0.00 40 1016.3
20260507113118 72 144 7.0 0.0 0.00 0.00 0.00 45 1016.5
20260507111550 71 139 6.0 0.0 0.00 0.00 0.00 54 1016.7
20260507110049 72 130 7.0 0.0 0.00 0.00 0.00 55 1016.4
20260507104557 72 209 8.0 0.0 0.00 0.00 0.00 53 1016.5
20260507103045 72 227 7.0 0.0 0.00 0.00 0.00 47 1016.0
20260507101545 72 126 5.0 0.0 0.00 0.00 0.00 45 1015.9
20260507100052 69 171 3.0 0.0 0.00 0.00 0.00 70 1016.1
20260507094540 69 168 4.0 0.0 0.00 0.00 0.00 70 1016.1
20260507093039 69 179 5.0 0.0 0.00 0.00 0.00 67 1016.2
20260507091541 69 222 5.0 0.0 0.00 0.00 0.00 65 1016.1
20260507090036 69 138 1.0 0.0 0.00 0.00 0.00 64 1016.0
20260507084548 69 156 1.0 0.0 0.00 0.00 0.00 64 1016.2
20260507083032 69 194 2.0 0.0 0.00 0.00 0.00 62 1016.2
20260507081531 68 157 3.0 0.0 0.00 0.00 0.00 60 1016.0
20260507080030 68 144 4.0 0.0 0.00 0.00 0.00 59 1016.1
20260507074528 68 169 3.0 0.0 0.00 0.00 0.00 58 1016.0
20260507073028 68 157 2.0 0.0 0.00 0.00 0.00 53 1015.8
20260507071532 67 165 3.0 0.0 0.00 0.00 0.00 55 1015.8
20260507070027 67 152 5.0 0.0 0.00 0.00 0.00 57 1016.0
20260507064525 66 188 5.0 0.0 0.00 0.00 0.00 58 1015.9
20260507063024 66 152 4.0 0.0 0.00 0.00 0.00 58 1015.8
20260507061530 66 190 5.0 0.0 0.00 0.00 0.00 57 1015.8
20260507060033 67 157 4.0 0.0 0.00 0.00 0.00 52 1015.7
20260507054533 68 79 0.0 0.0 0.00 0.00 0.00 51 1015.5
20260507053017 68 79 0.0 0.0 0.00 0.00 0.00 53 1015.0